Temp
-13 -12 -12 -13 -13 -12 -11 -11 -11 -10 -10 -10 -11 -12 -12 -12 -11 -11 -10 -10 -10 -10 -10 -10 -9 -9 -9 -9 -10 -9 -9 -9 -9 -9 -9 -9 -8 -8 -8 -8 -9 -8 -8
-12 -13 -13 -12 -12 -12 -12 -13 -12 -11 -11 -11 -11 -12 -12 -12 -11 -11 -11 -10 -10 -10 -10 -10 -9 -9 -9 -9 -10 -10 -9 -9 -9 -9 -9 -9 -9 -8 -8 -8 -9 -9 -9
-11 -12 -13 -11 -11 -11 -11 -11 -11 -11 -12 -13 -12 -12 -12 -12 -11 -11 -11 -10 -10 -10 -10 -10 -10 -10 -10 -9 -9 -10 -9 -10 -9 -9 -9 -9 -9 -9 -8 -8 -8 -8 -8
-11 -11 -11 -11 -11 -11 -11 -11 -10 -11 -11 -11 -11 -11 -11 -12 -11 -11 -12 -11 -11 -10 -10 -10 -10 -10 -10 -10 -10 -10 -10 -10 -10 -10 -9 -9 -9 -9 -9 -8 -8 -8 -8
-11 -11 -11 -11 -11 -11 -11 -11 -11 -11 -11 -10 -10 -11 -10 -11 -11 -12 -12 -12 -11 -11 -10 -11 -11 -10 -10 -10 -10 -10 -10 -10 -10 -10 -10 -10 -9 -9 -9 -9 -8 -8 -8
-11 -11 -11 -11 -11 -11 -11 -11 -11 -10 -10 -10 -10 -10 -11 -10 -11 -11 -11 -11 -11 -10 -10 -10 -10 -10 -10 -10 -10 -10 -10 -10 -10 -10 -10 -10 -9 -9 -9 -9 -9 -8 -9
-11 -11 -11 -11 -11 -11 -11 -11 -11 -11 -10 -10 -10 -10 -10 -10 -10 -10 -11 -10 -11 -10 -10 -10 -10 -10 -10 -10 -10 -10 -10 -10 -10 -10 -10 -11 -10 -9 -9 -9 -9 -8 -8
-11 -11 -11 -11 -11 -11 -11 -11 -11 -11 -11 -10 -10 -10 -10 -10 -10 -10 -10 -10 -11 -10 -10 -11 -11 -10 -10 -10 -10 -10 -10 -11 -11 -11 -11 -10 -11 -10 -9 -9 -9 -9 -9
-11 -11 -11 -11 -11 -11 -11 -11 -11 -11 -11 -11 -10 -10 -10 -10 -10 -10 -10 -10 -10 -10 -10 -10 -10 -10 -10 -10 -10 -10 -11 -11 -11 -11 -11 -11 -11 -10 -10 -10 -9 -9 -10
-10 -11 -11 -11 -11 -12 -11 -11 -11 -11 -11 -11 -11 -11 -10 -10 -10 -10 -10 -11 -11 -10 -10 -11 -10 -10 -10 -10 -10 -10 -10 -10 -11 -11 -11 -11 -11 -10 -10 -10 -10 -10 -10
-11 -11 -11 -11 -11 -11 -11 -11 -11 -12 -12 -11 -11 -11 -11 -11 -11 -10 -10 -10 -10 -10 -10 -11 -11 -11 -11 -10 -10 -10 -10 -10 -10 -11 -11 -11 -11 -11 -11 -10 -10 -10 -10
-11 -11 -11 -11 -11 -11 -11 -11 -11 -11 -11 -11 -11 -11 -11 -12 -11 -11 -11 -11 -11 -11 -11 -11 -11 -11 -11 -11 -11 -11 -10 -10 -10 -11 -11 -11 -11 -11 -11 -11 -10 -10 -11
-11 -11 -11 -11 -11 -11 -11 -11 -11 -11 -11 -11 -11 -12 -12 -11 -11 -11 -11 -11 -11 -11 -11 -11 -11 -11 -11 -11 -11 -11 -11 -11 -11 -10 -11 -11 -11 -11 -11 -11 -11 -10 -11
-11 -11 -11 -11 -11 -11 -11 -11 -11 -11 -11 -11 -12 -12 -12 -12 -12 -12 -12 -12 -12 -11 -11 -11 -11 -12 -12 -11 -12 -12 -11 -11 -11 -11 -11 -11 -11 -11 -11 -11 -11 -11 -11
-11 -11 -11 -11 -11 -11 -11 -11 -11 -11 -12 -12 -12 -12 -12 -12 -12 -12 -12 -12 -13 -12 -12 -12 -12 -12 -12 -12 -12 -12 -12 -12 -11 -11 -11 -11 -11 -11 -11 -11 -11 -11 -11
-11 -11 -11 -11 -11 -11 -11 -11 -12 -12 -12 -12 -12 -12 -12 -12 -12 -12 -13 -13 -13 -13 -13 -13 -13 -13 -12 -12 -12 -12 -12 -12 -12 -12 -12 -12 -12 -11 -11 -11 -11 -11 -12
-11 -11 -11 -12 -12 -12 -12 -12 -12 -12 -12 -12 -12 -12 -12 -13 -13 -13 -13 -13 -13 -13 -13 -13 -14 -13 -13 -13 -13 -12 -12 -12 -12 -12 -12 -12 -12 -12 -12 -12 -11 -11 -11
-11 -12 -12 -12 -12 -12 -12 -12 -12 -12 -12 -12 -13 -13 -13 -13 -13 -13 -13 -13 -13 -14 -14 -14 -14 -14 -14 -14 -13 -13 -13 -12 -12 -12 -12 -12 -12 -12 -12 -12 -12 -11 -11
-12 -12 -12 -12 -13 -12 -12 -13 -13 -13 -13 -13 -13 -13 -13 -13 -13 -13 -13 -14 -14 -14 -14 -14 -15 -15 -14 -14 -14 -14 -14 -13 -13 -12 -12 -13 -13 -12 -13 -12 -12 -12 -12
-12 -12 -13 -13 -13 -13 -13 -13 -13 -13 -13 -13 -13 -13 -13 -13 -13 -13 -13 -14 -14 -14 -14 -14 -14 -14 -15 -15 -15 -15 -15 -14 -14 -14 -13 -13 -12 -13 -13 -13 -13 -12 -12
-13 -13 -13 -13 -13 -14 -13 -13 -14 -14 -13 -14 -13 -13 -14 -14 -14 -14 -14 -14 -14 -14 -14 -14 -14 -15 -15 -15 -15 -15 -15 -15 -15 -14 -14 -14 -13 -13 -13 -13 -13 -13 -12
-13 -14 -14 -14 -14 -14 -14 -14 -14 -14 -14 -14 -14 -15 -15 -15 -15 -15 -15 -15 -15 -15 -14 -15 -15 -15 -14 -15 -15 -15 -15 -16 -16 -16 -16 -15 -14 -14 -13 -13 -13 -13 -13
-14 -14 -14 -14 -14 -14 -14 -14 -14 -15 -15 -15 -15 -15 -15 -15 -15 -15 -15 -15 -15 -15 -15 -15 -15 -15 -15 -15 -15 -15 -15 -14 -15 -16 -17 -17 -16 -15 -14 -14 -13 -14 -13
-14 -15 -15 -15 -15 -15 -15 -15 -15 -15 -16 -16 -16 -16 -16 -16 -16 -16 -16 -16 -16 -16 -15 -16 -16 -16 -17 -17 -17 -17 -17 -16 -16 -15 -17 -17 -17 -17 -16 -15 -14 -13 -14
-15 -15 -15 -15 -15 -15 -15 -15 -16 -16 -16 -16 -16 -17 -17 -17 -17 -17 -17 -17 -16 -16 -16 -17 -17 -18 -18 -18 -18 -19 -19 -19 -18 -18 -17 -18 -18 -18 -18 -17 -16 -15 -14
-16 -16 -16 -16 -16 -16 -16 -16 -16 -16 -17 -17 -17 -17 -17 -17 -18 -18 -18 -18 -17 -17 -18 -18 -19 -19 -19 -19 -20 -20 -20 -20 -20 -19 -18 -18 -19 -19 -18 -18 -17 -16 -15
Height
5810 5807 5811 5812 5813 5813 5815 5814 5816 5817 5817 5819 5817 5818 5821 5822 5825 5827 5828 5831 5832 5832 5833 5835 5836 5836 5838 5838 5840 5843 5844 5846 5847 5848 5849 5850 5852 5853 5856 5857 5858 5859 5860
5808 5807 5808 5811 5812 5813 5813 5814 5815 5815 5814 5814 5818 5818 5819 5819 5822 5825 5826 5829 5830 5830 5831 5832 5832 5834 5836 5836 5838 5842 5843 5843 5845 5847 5848 5848 5850 5852 5854 5855 5856 5859 5860
5807 5807 5808 5807 5809 5810 5811 5813 5814 5816 5815 5814 5816 5818 5818 5818 5819 5822 5824 5826 5827 5828 5829 5829 5829 5829 5831 5833 5836 5838 5839 5841 5843 5845 5846 5847 5848 5849 5851 5853 5854 5857 5859
5805 5806 5807 5807 5806 5807 5808 5810 5813 5813 5814 5815 5816 5818 5817 5817 5817 5819 5821 5822 5823 5826 5826 5826 5828 5830 5828 5830 5832 5833 5836 5838 5840 5843 5845 5846 5847 5848 5849 5850 5852 5853 5856
5802 5802 5803 5804 5804 5806 5805 5807 5809 5809 5811 5812 5813 5815 5814 5814 5815 5816 5817 5819 5821 5823 5824 5824 5825 5827 5828 5827 5829 5831 5833 5836 5838 5840 5842 5844 5846 5846 5847 5848 5849 5851 5852
5800 5800 5800 5800 5800 5801 5801 5803 5804 5805 5807 5809 5808 5810 5811 5810 5812 5813 5814 5816 5818 5819 5820 5820 5823 5824 5826 5826 5826 5826 5829 5831 5834 5837 5838 5840 5843 5845 5845 5845 5847 5848 5850
5796 5797 5798 5798 5799 5799 5799 5799 5800 5802 5803 5803 5805 5805 5805 5807 5808 5810 5811 5812 5814 5815 5816 5816 5818 5820 5821 5822 5823 5823 5825 5826 5828 5831 5834 5835 5838 5841 5843 5843 5844 5845 5847
5792 5792 5792 5792 5793 5794 5795 5796 5796 5797 5797 5799 5800 5800 5800 5801 5803 5805 5806 5807 5809 5810 5811 5811 5812 5814 5816 5818 5820 5822 5823 5824 5824 5826 5830 5831 5834 5835 5839 5841 5841 5842 5844
5786 5785 5785 5786 5786 5787 5787 5788 5789 5790 5791 5793 5793 5795 5796 5797 5798 5799 5801 5801 5803 5805 5806 5806 5807 5809 5810 5812 5814 5817 5818 5819 5821 5823 5824 5828 5830 5830 5833 5836 5838 5839 5841
5780 5780 5779 5779 5779 5779 5780 5781 5782 5784 5785 5785 5787 5788 5789 5791 5791 5794 5795 5796 5795 5798 5799 5799 5800 5802 5804 5807 5809 5811 5812 5814 5817 5820 5820 5821 5825 5828 5828 5831 5834 5836 5837
5776 5775 5775 5775 5774 5774 5774 5774 5773 5773 5775 5776 5777 5780 5782 5783 5784 5785 5787 5787 5789 5792 5792 5793 5794 5795 5796 5799 5801 5803 5806 5808 5810 5812 5816 5816 5819 5821 5824 5826 5828 5831 5833
5769 5769 5769 5769 5769 5768 5768 5768 5767 5766 5767 5768 5770 5772 5773 5774 5774 5776 5779 5779 5781 5783 5784 5785 5787 5787 5788 5790 5792 5794 5798 5801 5803 5805 5807 5810 5812 5815 5817 5819 5823 5824 5827
5763 5762 5762 5761 5760 5760 5760 5760 5760 5760 5761 5761 5761 5761 5762 5762 5764 5766 5768 5770 5771 5772 5774 5776 5776 5778 5778 5780 5783 5786 5788 5792 5795 5798 5799 5801 5804 5807 5810 5812 5815 5818 5819
5756 5755 5754 5753 5753 5753 5753 5753 5752 5752 5752 5752 5753 5753 5752 5753 5754 5755 5756 5758 5760 5761 5762 5763 5764 5767 5769 5770 5773 5775 5777 5781 5785 5788 5791 5791 5795 5798 5801 5804 5807 5809 5811
5748 5747 5745 5744 5744 5743 5743 5742 5742 5742 5741 5741 5741 5742 5742 5741 5742 5744 5745 5745 5747 5748 5750 5752 5753 5755 5757 5759 5760 5763 5765 5768 5772 5777 5781 5783 5784 5788 5791 5794 5798 5800 5802
5738 5737 5736 5735 5734 5733 5732 5731 5731 5731 5730 5730 5730 5731 5731 5730 5729 5729 5731 5733 5734 5734 5735 5737 5739 5742 5744 5745 5746 5749 5753 5755 5759 5764 5768 5772 5774 5776 5780 5783 5787 5790 5793
5727 5726 5725 5724 5724 5723 5722 5720 5719 5719 5718 5718 5718 5718 5718 5717 5717 5715 5714 5715 5716 5717 5719 5722 5723 5725 5728 5731 5733 5735 5738 5741 5745 5749 5754 5759 5761 5764 5768 5771 5775 5779 5782
5716 5716 5714 5713 5712 5711 5709 5708 5706 5705 5704 5704 5703 5703 5702 5702 5702 5700 5699 5700 5700 5700 5703 5704 5705 5708 5710 5712 5716 5719 5722 5726 5729 5733 5736 5741 5746 5750 5753 5757 5761 5766 5770
5705 5704 5702 5701 5699 5697 5696 5694 5693 5692 5691 5690 5689 5687 5686 5686 5685 5684 5683 5682 5682 5682 5683 5684 5686 5688 5690 5693 5696 5699 5702 5707 5711 5714 5717 5721 5727 5733 5736 5740 5746 5751 5756
5693 5692 5690 5688 5686 5684 5683 5681 5680 5678 5676 5675 5673 5672 5671 5671 5670 5669 5668 5667 5667 5666 5666 5666 5667 5667 5668 5670 5672 5676 5680 5683 5687 5692 5698 5702 5706 5712 5719 5724 5728 5734 5739
5680 5678 5677 5676 5674 5671 5669 5668 5666 5664 5662 5660 5659 5658 5657 5656 5655 5654 5652 5650 5648 5647 5646 5644 5644 5646 5646 5646 5649 5652 5656 5658 5661 5668 5672 5678 5684 5690 5696 5702 5709 5717 5723
5667 5665 5663 5661 5660 5657 5655 5654 5652 5650 5647 5646 5644 5641 5639 5637 5635 5633 5631 5629 5627 5626 5625 5623 5621 5620 5620 5620 5623 5626 5632 5635 5635 5639 5644 5649 5656 5667 5673 5679 5689 5698 5705
5654 5652 5649 5647 5645 5643 5641 5639 5637 5635 5632 5629 5626 5623 5620 5618 5615 5612 5609 5607 5604 5602 5599 5596 5595 5594 5594 5591 5588 5589 5596 5601 5606 5610 5615 5620 5627 5634 5644 5658 5666 5675 5684
5641 5638 5635 5632 5629 5627 5625 5622 5620 5617 5614 5610 5607 5603 5600 5595 5592 5589 5587 5584 5580 5578 5575 5572 5568 5564 5562 5561 5556 5552 5552 5560 5564 5579 5585 5587 5595 5604 5614 5628 5643 5651 5660
5627 5623 5619 5616 5613 5610 5608 5605 5603 5600 5596 5592 5588 5584 5580 5575 5571 5567 5564 5561 5556 5553 5549 5545 5539 5533 5525 5522 5519 5516 5514 5516 5521 5527 5547 5555 5559 5570 5582 5596 5609 5623 5631
5610 5607 5603 5600 5597 5594 5591 5588 5585 5581 5578 5573 5569 5564 5560 5554 5550 5544 5539 5534 5529 5525 5520 5514 5507 5498 5491 5485 5479 5474 5469 5469 5471 5477 5492 5512 5525 5530 5544 5561 5575 5589 5600
Wind_Speed
11 12 7 9 12 7 11 8 10 15 9 4 6 5 25 27 26 23 22 22 26 26 23 22 21 27 11 20 18 15 16 16 14 14 12 10 9 7 9 10 9 12 18
6 4 7 6 7 3 6 7 9 11 5 5 5 1 1 2 28 24 25 25 26 28 25 23 23 25 21 13 17 15 18 19 17 16 15 13 13 11 10 12 11 11 15
11 10 9 11 6 6 5 4 9 6 8 15 11 13 2 4 5 8 24 34 30 27 30 29 25 26 23 19 14 12 15 23 19 19 18 16 14 14 12 13 14 14 14
9 9 6 9 10 6 4 6 6 7 7 9 12 12 13 12 13 7 10 10 7 23 27 27 25 23 23 23 22 17 7 19 19 19 20 19 17 16 15 14 14 14 16
9 10 9 9 8 8 8 8 8 7 9 9 13 11 11 13 16 14 12 13 15 13 13 12 18 20 19 20 23 22 22 14 21 25 23 23 21 19 18 15 15 15 17
13 12 15 13 12 12 13 12 12 11 12 13 13 16 12 12 15 16 15 14 16 17 17 15 17 17 20 24 26 25 26 24 18 19 28 26 25 22 19 18 16 16 17
15 16 15 15 16 17 16 16 16 16 16 16 18 17 18 16 17 18 19 20 20 22 22 20 20 21 24 23 22 22 24 26 26 24 23 31 27 26 23 21 19 18 18
19 19 20 19 19 20 20 19 20 21 21 22 22 22 21 22 23 20 22 23 23 25 25 26 26 25 26 27 25 26 25 24 27 28 23 32 28 28 26 24 23 20 19
23 23 23 23 23 23 23 22 23 23 23 23 24 24 24 26 26 27 27 27 27 28 29 29 30 30 30 29 29 29 29 26 24 26 26 23 32 30 29 27 26 25 22
25 26 27 27 28 27 27 26 26 26 26 26 26 25 26 27 27 28 29 30 31 33 34 33 33 34 34 34 33 32 31 31 29 28 26 29 29 35 32 30 30 28 28
27 28 28 29 30 30 31 32 32 31 29 30 31 32 31 31 30 32 32 33 33 35 36 37 38 39 38 38 38 36 35 33 33 33 30 30 30 32 37 36 34 32 30
31 31 32 33 34 35 35 35 36 37 38 38 37 37 37 36 35 36 38 38 38 38 40 40 41 41 41 42 43 41 40 39 38 38 38 37 34 33 31 39 38 36 35
35 36 37 38 38 38 39 40 40 41 42 42 42 42 42 41 41 42 43 43 43 43 44 45 45 45 45 44 44 44 45 45 44 42 42 41 38 39 37 33 40 40 38
40 40 40 40 39 40 41 42 42 42 43 43 43 44 44 44 44 45 47 48 48 49 49 50 50 50 50 50 49 49 48 46 47 47 46 46 44 41 43 42 40 44 43
41 41 41 42 42 43 43 44 45 45 45 46 46 46 47 47 47 48 49 50 50 51 52 54 54 55 56 54 53 55 55 53 51 50 49 51 51 48 47 44 44 44 48
42 43 44 44 45 45 46 46 47 47 47 46 46 47 47 48 48 50 52 53 53 54 55 55 56 55 57 59 59 58 58 58 57 56 54 53 54 55 53 51 48 49 46
42 43 44 45 45 45 45 44 45 46 46 46 46 47 48 49 51 51 53 54 53 54 55 56 57 56 56 58 60 62 63 62 62 62 60 59 57 58 58 58 57 53 53
43 43 42 42 41 42 44 45 47 48 48 49 49 49 51 53 53 54 55 55 55 55 56 57 59 61 62 62 63 63 65 66 68 68 67 65 63 64 63 61 62 61 58
47 47 45 43 44 46 47 48 49 49 50 51 52 54 55 57 58 59 59 60 62 63 64 63 63 63 64 65 65 66 67 68 70 71 72 73 71 69 68 67 66 66 66
47 47 47 46 47 48 49 50 51 51 52 54 56 58 60 62 64 65 66 67 69 69 69 69 69 69 69 69 70 70 69 69 71 75 77 78 79 77 75 73 72 71 69
47 47 47 48 49 50 52 53 52 53 55 56 59 62 64 64 63 64 67 70 72 74 74 74 73 74 76 78 79 79 80 80 80 80 79 80 82 85 84 81 79 77 75
47 48 48 50 52 53 54 55 56 57 58 59 60 60 62 64 66 68 70 72 72 72 71 75 79 82 83 86 86 86 85 84 85 86 85 88 88 86 88 88 84 82 81
50 51 52 53 53 54 56 57 58 59 60 59 59 61 64 65 67 69 72 74 75 77 79 83 86 87 88 92 94 96 97 98 95 91 90 90 91 93 93 90 92 89 87
51 50 53 54 54 56 58 58 60 60 59 60 61 62 65 66 68 71 71 72 74 79 84 88 93 95 93 94 97 102 105 108 106 105 99 96 95 93 95 94 93 97 95
50 52 53 54 56 58 60 61 59 59 60 61 63 63 65 67 69 70 71 73 78 86 91 97 95 97 100 103 104 105 105 106 108 108 106 101 103 103 98 97 96 96 102
52 52 53 55 58 58 59 59 59 60 61 62 64 65 67 68 69 70 73 78 85 91 92 94 98 100 102 105 108 109 106 105 105 108 109 105 104 105 106 102 102 104 106
Wind_Direction
267 191 220 228 228 281 290 285 320 297 268 260 99 198 218 225 232 233 237 237 230 225 229 232 234 235 266 241 221 234 234 234 229 225 221 215 206 200 199 192 193 195 190
267 23 334 294 261 236 357 329 347 330 312 201 261 97 341 210 227 237 238 239 238 232 229 232 232 238 238 237 223 235 247 236 230 230 229 221 209 203 201 204 200 191 203
293 309 324 316 308 285 254 323 276 324 326 322 337 344 170 306 208 226 242 247 250 243 238 239 242 257 262 251 224 253 275 230 233 236 232 229 221 209 204 209 207 205 218
276 276 265 275 300 302 284 222 255 258 301 292 289 284 291 297 301 335 333 332 301 251 246 242 249 256 271 271 273 251 267 233 229 237 241 235 231 219 210 213 212 207 209
280 283 278 272 272 275 279 272 258 248 245 250 264 259 268 274 298 306 300 317 305 310 302 286 253 252 254 265 266 269 268 251 239 234 232 239 234 229 219 214 214 212 208
266 265 274 275 279 274 278 273 267 263 258 262 262 273 257 258 270 266 262 261 259 265 277 279 276 279 274 271 273 271 268 263 252 245 236 236 235 231 229 221 218 217 214
268 268 266 268 265 265 265 267 268 262 262 260 257 261 274 269 260 264 265 261 259 260 261 261 264 268 274 274 275 276 272 270 260 263 258 221 234 233 229 226 224 220 221
268 265 267 268 271 271 267 264 264 264 263 262 263 265 261 265 267 263 265 265 264 262 261 260 257 258 262 267 269 276 276 271 268 263 264 229 227 234 230 231 225 225 223
274 274 274 273 270 268 269 271 270 270 269 266 268 266 264 264 261 263 262 259 260 264 262 261 263 262 258 259 262 265 268 268 271 268 262 258 223 235 236 231 234 228 227
273 276 279 281 282 281 277 273 270 266 264 265 263 261 263 264 264 263 264 265 264 258 259 260 260 259 260 260 259 259 259 264 270 266 267 260 256 235 237 235 237 234 231
269 268 269 270 272 274 275 277 278 278 275 273 273 270 265 262 262 265 267 266 266 267 268 265 260 258 257 258 258 259 259 257 258 263 262 263 261 259 237 238 234 238 234
271 272 272 272 271 271 271 273 275 277 278 277 275 273 272 272 272 271 269 268 266 264 266 266 265 264 263 260 257 256 256 257 256 256 259 261 262 262 252 234 236 236 239
275 274 274 274 274 275 274 273 272 271 271 272 274 275 273 273 272 270 268 266 267 267 266 263 264 264 264 264 263 261 258 256 254 253 256 257 256 258 259 260 241 235 236
273 273 272 270 270 270 270 270 270 271 271 272 272 272 272 271 269 269 269 267 266 264 263 266 266 264 262 261 261 261 261 258 257 255 253 255 255 253 255 256 259 242 234
274 272 270 270 271 272 272 272 272 272 273 274 274 274 275 274 272 272 271 270 269 267 263 262 261 263 264 263 261 261 260 259 258 257 255 254 254 253 253 252 253 254 243
276 275 274 273 273 272 272 272 272 271 273 275 275 275 276 275 275 273 272 271 271 270 270 267 264 261 262 263 265 263 261 260 258 256 255 255 254 253 251 252 249 251 251
275 275 274 273 272 273 273 274 274 275 275 274 274 275 276 276 276 277 277 275 274 272 268 267 267 266 263 262 261 261 262 263 260 259 257 255 254 253 252 251 251 247 247
277 277 276 276 276 277 277 276 276 277 278 279 278 279 279 279 280 279 279 278 277 275 273 270 268 266 264 262 261 259 258 259 260 261 259 256 254 253 251 250 250 248 245
277 276 275 275 277 279 279 278 278 279 280 280 282 284 286 285 286 284 282 281 280 279 278 276 274 271 268 266 262 259 258 256 255 255 258 259 256 252 252 250 248 248 247
276 276 276 276 276 277 278 279 281 283 284 285 287 287 286 286 285 284 282 280 279 277 275 273 273 273 276 274 272 269 265 261 257 254 253 253 257 255 251 250 249 246 246
275 274 274 277 278 280 281 282 282 282 283 283 283 281 281 280 279 278 276 275 275 274 272 273 272 273 273 273 271 271 269 267 264 262 258 253 250 252 252 249 248 248 245
276 276 277 279 281 282 282 281 281 281 280 280 279 280 281 282 282 281 279 276 275 273 271 273 273 272 272 273 270 267 265 264 263 261 258 257 255 251 246 249 248 246 246
279 281 281 282 282 282 281 281 281 281 280 280 281 282 284 284 283 282 281 279 277 276 276 276 276 274 273 274 274 273 271 268 263 259 257 255 252 252 250 245 246 247 244
281 281 282 282 282 282 282 282 281 281 281 283 284 285 285 285 285 283 282 282 283 283 280 278 278 279 277 276 275 274 272 271 266 263 258 253 250 245 246 247 243 242 243
282 282 282 282 282 281 281 280 280 281 283 284 285 286 286 286 286 285 287 289 289 286 284 282 282 282 281 280 278 276 273 269 265 261 256 251 248 245 241 238 236 236 239
283 284 284 283 282 281 280 281 281 283 285 286 286 287 287 287 286 289 292 293 292 290 287 286 286 286 285 282 280 278 276 273 269 264 258 249 243 244 239 236 231 230 230